Tracking 30685 objects as of 18-Jun-2025
HD Live streaming from Space Station
objects crossing your sky now

TITAN 3C TRANSTAGE DEB

Track TITAN 3C TRANSTAGE DEB now!
10-day predictions


NORAD ID: 1680
Int'l Code: 1965-082AT
Perigee: 668.5 km
Apogee: 697.7 km
Inclination: 32.3 °
Period: 98.3 minutes
Semi major axis: 7054 km
RCS: 2.2194 m2 (large)
Launch date: October 15, 1965
Source: United States (US)
Launch site: AIR FORCE EASTERN TEST RANGE (AFETR)

Note: This is SATELLITE DEBRIS
Your satellite tracking list
Your tracking list is empty




NASA's NSSDC Master Catalog

Two Line Element Set (TLE):
1 01680U 65082AT  25168.66768461  .00000285  00000-0  45127-4 0  9990
2 01680  32.2535 169.2611 0020704 179.7736 180.2924 14.65358399160147
Source of the keplerian elements: AFSPC